[[{"header":{"parameterUnit":"m.s-1","parameterCategory":1,"la1":30.2991,"la2":30.254,"lo1":-89.0895,"lo2":-89.0444,"dy":0.0017,"dx":0.0017,"nx":28,"ny":28,"refTime":"2025-05-17T21:00:00:Z","depth":0,"parameterNumber":2,"parameterNumberName":"U-component_of_WINDS"},"data":[0,0,0,0,0,0,0,0,0,0,0,0,0,0,0,0,0,0,0,0,0,0,0,0,0,0,0,0,0,0,0,0,0,0,0,0,0,0,0,0,0,0,0,0,0,0,0,0,0,0,0,0,0,0,0,0,0,0,-1.164,-1.1638,0,-1.1515,-1.1514,-1.1513,-1.1446,-1.1446,-1.1446,-1.1446,-1.1313,-1.131,-1.1306,0,0,0,0,0,0,0,0,0,0,0,0,0,-1.1815,-1.1812,-1.164,-1.1638,-1.1637,-1.1516,-1.1514,-1.1512,-1.1446,-1.1446,-1.1446,-1.1446,-1.1314,-1.131,-1.1306,0,0,0,0,0,0,0,0,0,0,0,0,0,-1.1719,-1.1811,-1.164,-1.1589,-1.1584,-1.1516,-1.1514,-1.1512,-1.1446,-1.1446,-1.1446,-1.1446,-1.1316,-1.1311,-1.1306,-1.1278,0,0,-1.129,-1.1288,0,0,0,0,0,0,0,0,-1.1725,-1.1713,-1.1598,-1.1593,-1.1586,-1.1496,-1.1527,-1.1433,-1.1446,-1.1498,-1.1446,-1.1445,-1.1374,-1.1364,-1.1341,-1.1271,-1.1266,-1.1289,-1.1286,-1.1284,-1.1283,0,0,0,0,0,0,0,-1.1732,-1.1718,-1.159,-1.1597,-1.1589,-1.1571,-1.1557,-1.1509,-1.1438,-1.1494,-1.1488,-1.1475,-1.137,-1.1346,-1.1337,-1.1264,-1.129,-1.1285,-1.1282,-1.128,-1.1163,-1.1163,0,0,0,0,0,0,-1.1747,-1.1724,-1.1594,-1.1587,-1.1657,-1.1568,-1.1553,-1.1525,-1.1439,-1.1425,-1.1475,-1.1472,-1.1355,-1.1343,-1.1332,-1.1293,-1.1284,-1.1279,-1.1276,-1.1163,-1.1163,-1.1163,0,0,0,0,0,0,-1.1751,-1.1736,-1.1599,-1.1654,-1.1635,-1.1565,-1.1535,-1.1523,-1.1498,-1.1425,-1.1411,-1.1464,-1.1354,-1.1339,-1.1292,-1.1287,-1.1277,-1.1272,-1.1163,-1.1163,-1.1163,-1.1214,0,0,0,0,0,0,-1.1756,-1.1738,-1.1728,-1.1654,-1.1633,-1.1563,-1.1535,-1.152,-1.149,-1.1485,-1.141,-1.1398,-1.1353,-1.13,-1.1287,-1.128,-1.1268,-1.1163,-1.1163,-1.1163,-1.1213,-1.1216,-1.1219,0,0,0,0,0,-1.1763,-1.1747,-1.1728,-1.1713,-1.1619,-1.1563,-1.155,-1.15,-1.149,-1.1479,-1.1431,-1.14,-1.129,-1.1295,-1.128,-1.1272,-1.1163,-1.1163,-1.1163,-1.1211,-1.1215,-1.1219,0,0,0,0,0,0,-1.182,-1.1736,-1.1714,-1.1674,-1.1626,-1.1552,-1.1536,-1.1506,-1.1459,-1.1456,-1.1395,-1.1378,-1.1336,-1.1299,-1.1306,-1.1239,-1.1223,-1.122,-1.1265,-1.1268,-1.1271,-1.1281,-1.1264,0,0,0,0,0,-1.1829,-1.1792,-1.1719,-1.1691,-1.1668,-1.1606,-1.158,-1.1546,-1.1493,-1.1472,-1.1421,-1.137,-1.1323,-1.1294,-1.1247,-1.1207,-1.1189,-1.1194,-1.1197,-1.12,-1.1197,-1.1172,-1.1173,-1.1163,-1.1163,-1.1163,0,0,-1.1844,-1.1794,-1.1774,-1.1701,-1.166,-1.1621,-1.1589,-1.155,-1.152,-1.1465,-1.1417,-1.1378,-1.1316,-1.1272,-1.125,-1.124,-1.1196,-1.12,-1.1203,-1.1198,-1.1172,-1.1173,-1.1174,-1.1163,-1.1163,-1.1163,0,0,-1.1854,-1.1813,-1.1784,-1.1743,-1.1682,-1.1641,-1.1634,-1.1564,-1.1536,-1.1488,-1.1445,-1.1408,-1.133,-1.1287,-1.1255,-1.1248,-1.1217,-1.1234,-1.125,-1.1226,-1.1227,-1.1227,-1.1223,-1.1223,-1.1232,-1.1233,-1.1233,0,-1.1881,-1.1823,-1.1772,-1.1735,-1.1703,-1.1654,-1.1623,-1.1585,-1.1511,-1.149,-1.148,-1.138,-1.1335,-1.128,-1.1278,-1.1255,-1.1243,-1.1242,-1.1231,-1.1231,-1.123,-1.1226,-1.1225,-1.1235,-1.1235,-1.1234,-1.1234,0,-1.1858,-1.1819,-1.1802,-1.1734,-1.17,-1.1666,-1.1609,-1.1581,-1.155,-1.1509,-1.1459,-1.1403,-1.1344,-1.1328,-1.1297,-1.1268,-1.1263,-1.1243,-1.1226,-1.1235,-1.1229,-1.1227,-1.1239,-1.1238,-1.1237,-1.1236,0,0,-1.19,-1.1804,-1.1799,-1.1766,-1.1695,-1.1662,-1.1626,-1.1569,-1.1545,-1.1496,-1.1462,-1.1397,-1.1378,-1.1342,-1.1305,-1.1284,-1.128,-1.1266,-1.1264,-1.127,-1.1243,-1.1258,-1.1257,-1.126,-1.1259,-1.1259,-1.1248,0,-1.1898,-1.1832,-1.1785,-1.1736,-1.1697,-1.1649,-1.1617,-1.1568,-1.1529,-1.149,-1.1446,-1.14,-1.1379,-1.1357,-1.1334,-1.1286,-1.1274,-1.1286,-1.1226,-1.1224,-1.1242,-1.1254,-1.127,-1.1262,-1.1245,-1.1245,-1.1245,0,-1.1887,-1.184,-1.1788,-1.172,-1.1702,-1.1674,-1.1618,-1.1582,-1.1525,-1.1498,-1.1458,-1.142,-1.1377,-1.1365,-1.1303,-1.1313,-1.1285,-1.1258,-1.1256,-1.1247,-1.1235,-1.1245,-1.1259,-1.1257,-1.1241,-1.1242,-1.1242,0,-1.1921,-1.1845,-1.1803,-1.1778,-1.1698,-1.1679,-1.1644,-1.1588,-1.1557,-1.1507,-1.1486,-1.1432,-1.1401,-1.1359,-1.1307,-1.1303,-1.1251,-1.1234,-1.1225,-1.1226,-1.1215,-1.1217,-1.1224,-1.12,-1.12,-1.12,-1.12,0,-1.1923,-1.1892,-1.1818,-1.1792,-1.1756,-1.1702,-1.1667,-1.1628,-1.1578,-1.1542,-1.1497,-1.1464,-1.1398,-1.1357,-1.1316,-1.127,-1.1257,-1.1232,-1.1222,-1.1236,-1.1239,-1.1216,-1.1215,-1.12,-1.12,-1.12,-1.12,0,-1.1954,-1.1903,-1.1855,-1.1783,-1.1765,-1.1741,-1.1679,-1.1651,-1.161,-1.1566,-1.1552,-1.1486,-1.1435,-1.138,-1.1309,-1.1281,-1.1238,-1.1223,-1.1258,-1.1251,-1.1245,-1.1246,-1.1237,-1.1232,-1.1214,-1.1214,-1.1214,0,-1.1958,-1.1934,-1.186,-1.1834,-1.1801,-1.176,-1.1728,-1.1673,-1.1641,-1.1575,-1.1555,-1.1501,-1.1455,-1.1375,-1.132,-1.1265,-1.1248,-1.1249,-1.1239,-1.1254,-1.1246,-1.1248,-1.1245,-1.1251,-1.1252,-1.1252,-1.1252,0,-1.1971,-1.1947,-1.1904,-1.1852,-1.1816,-1.1771,-1.1725,-1.1706,-1.1642,-1.1608,-1.1556,-1.1521,-1.1449,-1.1395,-1.1334,-1.1296,-1.1263,-1.1256,-1.1251,-1.1264,-1.1285,-1.1273,-1.1264,-1.1256,-1.1256,-1.1255,-1.1255,-1.1255,-1.1988,-1.1963,-1.1908,-1.1861,-1.1821,-1.1779,-1.1749,-1.1705,-1.1661,-1.16,-1.157,-1.1518,-1.146,-1.1375,-1.1338,-1.1295,-1.1285,-1.1278,-1.1276,-1.1274,-1.1278,-1.1293,-1.1284,-1.1284,-1.1283,-1.1283,-1.1283,0,-1.1997,-1.1959,-1.1916,-1.1854,-1.1817,-1.1791,-1.1738,-1.1708,-1.1664,-1.1614,-1.157,-1.1509,-1.1457,-1.1398,-1.1341,-1.1318,-1.1301,-1.1305,-1.1305,-1.1296,-1.1291,-1.13,-1.1319,-1.1319,-1.1319,-1.1319,-1.1319,-1.1319,-1.1997,-1.1954,-1.1924,-1.186,-1.1821,-1.1771,-1.1743,-1.1704,-1.1664,-1.1599,-1.1556,-1.1518,-1.1464,-1.1403,-1.1353,-1.1337,-1.1317,-1.1325,-1.1304,-1.13,-1.1297,-1.1294,-1.1303,-1.1322,-1.1322,-1.1313,-1.1313,-1.1313]},{"header":{"parameterUnit":"m.s-1","parameterCategory":1,"la1":30.2991,"la2":30.254,"lo1":-89.0895,"lo2":-89.0444,"dy":0.0017,"dx":0.0017,"nx":28,"ny":28,"refTime":"2025-05-17T21:00:00:Z","depth":0,"parameterNumber":3,"parameterNumberName":"V-component_of_WINDS"},"data":[0,0,0,0,0,0,0,0,0,0,0,0,0,0,0,0,0,0,0,0,0,0,0,0,0,0,0,0,0,0,0,0,0,0,0,0,0,0,0,0,0,0,0,0,0,0,0,0,0,0,0,0,0,0,0,0,0,0,4.0192,4.0193,0,4.024,4.0241,4.0241,4.0222,4.0221,4.0219,4.0218,4.0266,4.0268,4.0271,0,0,0,0,0,0,0,0,0,0,0,0,0,4.0085,4.0087,4.0192,4.0193,4.0193,4.024,4.0241,4.0241,4.0222,4.0221,4.0219,4.0218,4.0265,4.0268,4.0271,0,0,0,0,0,0,0,0,0,0,0,0,0,4.0132,4.0087,4.0192,4.0189,4.019,4.024,4.0241,4.0241,4.0222,4.022,4.0219,4.0217,4.0265,4.0268,4.0271,4.0327,0,0,4.0282,4.0283,0,0,0,0,0,0,0,0,4.0129,4.0136,4.0189,4.019,4.019,4.0223,4.022,4.027,4.0223,4.021,4.0218,4.0216,4.0253,4.0257,4.027,4.0329,4.0331,4.0282,4.0284,4.0286,4.0287,0,0,0,0,0,0,0,4.0126,4.0133,4.0211,4.019,4.0191,4.0186,4.0191,4.0229,4.024,4.0211,4.0209,4.0215,4.0253,4.0267,4.0271,4.0331,4.0282,4.0285,4.0287,4.0289,4.0441,4.0443,0,0,0,0,0,0,4.0122,4.0131,4.021,4.0212,4.0155,4.0189,4.0195,4.0214,4.024,4.0242,4.0217,4.0214,4.0262,4.0267,4.0273,4.0341,4.0286,4.0289,4.0291,4.0439,4.0441,4.0443,0,0,0,0,0,0,4.012,4.013,4.0208,4.0171,4.0181,4.0193,4.0215,4.0216,4.023,4.0244,4.0246,4.0229,4.0261,4.0268,4.0314,4.0342,4.0291,4.0294,4.0437,4.044,4.0442,4.0477,0,0,0,0,0,0,4.0117,4.0129,4.015,4.0172,4.0183,4.0248,4.0217,4.0218,4.0236,4.0233,4.0256,4.0258,4.026,4.0309,4.0317,4.0346,4.0297,4.0434,4.0438,4.0441,4.0474,4.0481,4.0487,0,0,0,0,0,4.0113,4.0157,4.0151,4.0161,4.0209,4.025,4.0256,4.0257,4.0238,4.026,4.027,4.0258,4.0338,4.0314,4.0323,4.0354,4.0432,4.0437,4.0441,4.0471,4.048,4.0487,0,0,0,0,0,0,4.0137,4.016,4.0153,4.0205,4.0226,4.0246,4.0273,4.0266,4.0292,4.0288,4.0288,4.0293,4.0342,4.0352,4.0325,4.041,4.0382,4.0389,4.0401,4.041,4.0417,4.0414,4.0299,0,0,0,0,0,4.0148,4.0179,4.0197,4.0242,4.0252,4.0261,4.0279,4.0278,4.0299,4.0307,4.032,4.0341,4.0371,4.0391,4.0419,4.0475,4.0481,4.05,4.0507,4.0513,4.0519,4.0552,4.0561,4.0458,4.0458,4.0458,0,0,4.0172,4.0188,4.0207,4.0247,4.0263,4.0295,4.0269,4.0303,4.0328,4.0312,4.0358,4.0368,4.0391,4.0443,4.0467,4.0453,4.0549,4.0518,4.0523,4.0526,4.0557,4.0567,4.0576,4.0461,4.046,4.046,0,0,4.0232,4.0246,4.0286,4.0303,4.0328,4.0334,4.0343,4.0365,4.0372,4.0418,4.0408,4.0437,4.0488,4.0506,4.0521,4.059,4.0581,4.0599,4.0636,4.0668,4.0676,4.0683,4.071,4.0719,4.0605,4.0605,4.0605,0,4.0258,4.0307,4.0307,4.0344,4.0363,4.0351,4.0392,4.0408,4.044,4.0453,4.0438,4.0504,4.0518,4.0576,4.0593,4.0605,4.0617,4.0597,4.0675,4.0682,4.0689,4.0714,4.0724,4.0607,4.0607,4.0607,4.0607,0,4.0339,4.0373,4.0402,4.0435,4.0457,4.0495,4.0502,4.0524,4.0521,4.0529,4.0577,4.0594,4.0627,4.064,4.0637,4.0698,4.0689,4.0674,4.0647,4.0701,4.0725,4.0735,4.0611,4.061,4.0609,4.0609,0,0,4.0415,4.0449,4.046,4.0476,4.0503,4.053,4.0568,4.0601,4.0621,4.0643,4.0677,4.0722,4.0709,4.0727,4.0726,4.0754,4.0811,4.0736,4.0736,4.0751,4.0881,4.0893,4.0904,4.0804,4.0806,4.0808,4.088,0,4.0478,4.0547,4.0549,4.0612,4.0644,4.0635,4.0669,4.0689,4.0698,4.0727,4.0736,4.0769,4.0748,4.076,4.0787,4.0798,4.0837,4.0793,4.0837,4.0838,4.0833,4.0917,4.0929,4.0996,4.0889,4.089,4.0891,0,4.0562,4.0589,4.0655,4.068,4.0694,4.0724,4.0756,4.0784,4.0808,4.0812,4.0833,4.0829,4.087,4.0841,4.0897,4.0867,4.0885,4.0894,4.0897,4.0902,4.0869,4.0926,4.1017,4.1028,4.0906,4.0905,4.0904,0,4.0613,4.0666,4.0714,4.0727,4.0757,4.0779,4.0792,4.0814,4.0835,4.0862,4.0876,4.0907,4.0925,4.095,4.0955,4.0933,4.1013,4.0983,4.1019,4.1019,4.1037,4.1036,4.1135,4.1046,4.1046,4.1046,4.1045,0,4.0685,4.0727,4.0738,4.0767,4.0813,4.0816,4.0862,4.0874,4.0894,4.0926,4.0918,4.0949,4.0953,4.0984,4.0988,4.1036,4.1044,4.1049,4.105,4.1051,4.1051,4.1064,4.106,4.1048,4.1048,4.1047,4.1047,0,4.0751,4.076,4.0811,4.0835,4.0842,4.0876,4.0897,4.0925,4.0934,4.0974,4.0984,4.0997,4.1034,4.1042,4.1085,4.1088,4.1145,4.114,4.1138,4.1138,4.1174,4.1171,4.1286,4.1302,4.1201,4.1202,4.1203,0,4.0797,4.0829,4.0858,4.0879,4.0894,4.0927,4.0949,4.0953,4.0975,4.1006,4.1031,4.1068,4.1097,4.1157,4.117,4.1204,4.1201,4.1239,4.1206,4.1207,4.1205,4.1203,4.1208,4.1246,4.1247,4.1248,4.1249,0,4.0879,4.0883,4.0914,4.0947,4.0973,4.0999,4.1024,4.1042,4.1049,4.1075,4.1113,4.1136,4.1181,4.1218,4.1252,4.1266,4.126,4.1259,4.1269,4.1271,4.1269,4.1273,4.1157,4.1256,4.1256,4.1255,4.1255,4.1254,4.0938,4.0967,4.0993,4.1028,4.1047,4.1071,4.11,4.1113,4.1145,4.1182,4.1182,4.1225,4.125,4.1295,4.1311,4.1345,4.1333,4.1348,4.1352,4.1356,4.136,4.1263,4.1351,4.1351,4.135,4.135,4.135,0,4.1022,4.1038,4.1071,4.1107,4.1135,4.1126,4.1154,4.1178,4.1216,4.1239,4.1269,4.1314,4.135,4.1367,4.1403,4.1427,4.1425,4.1437,4.1436,4.144,4.1368,4.1356,4.1438,4.1438,4.1438,4.1438,4.1438,4.1438,4.1069,4.1118,4.1125,4.1184,4.12,4.1242,4.1259,4.1281,4.1301,4.1351,4.1382,4.1393,4.1415,4.1452,4.1486,4.149,4.1505,4.1518,4.1521,4.1454,4.1445,4.1436,4.1425,4.1521,4.1521,4.1591,4.1592,4.1592]}]]